This is the latest recevied weather packets stored in our database for station/object W1HVD. If no packets are shown the sender has not sent any weather packets the latest 10 day(s).
| Time | Temp. | Humidity | Pressure | Rain* | Wind** | Luminosity | Snow |
|---|---|---|---|---|---|---|---|
| 1778239724 | 6.67° C | 77% | 1010.5 hPa | 0 mm | - | 76 W/m² | - |
| 1778239421 | 6.67° C | 79% | 1010.3 hPa | 0 mm | - | 74 W/m² | - |
| 1778239117 | 6.67° C | 78% | 1010.6 hPa | 0 mm | - | 66 W/m² | - |
| 1778238814 | 6.11° C | 72% | 1010.4 hPa | 0 mm | - | 67 W/m² | - |
| 1778238512 | 5.56° C | 82% | 1010.4 hPa | 0 mm | - | 66 W/m² | - |
| 1778238209 | 5° C | 84% | 1010.4 hPa | 0 mm | - | 87 W/m² | - |
| 1778237909 | 5° C | 85% | 1010.4 hPa | 0 mm | - | 66 W/m² | - |
| 1778237606 | 4.44° C | 83% | 1010.3 hPa | 0 mm | - | 43 W/m² | - |
| 1778237303 | 4.44° C | 83% | 1010.1 hPa | 0 mm | - | 43 W/m² | - |
| 1778236999 | 4.44° C | 84% | 1010.2 hPa | 0 mm | - | 33 W/m² | - |
| 1778236697 | 4.44° C | 83% | 1010.1 hPa | 0 mm | - | 31 W/m² | - |
| 1778236394 | 4.44° C | 83% | 1010.1 hPa | 0 mm | - | 30 W/m² | - |
| 1778236092 | 4.44° C | 82% | 1009.9 hPa | 0 mm | - | 28 W/m² | - |
| 1778235789 | 4.44° C | 81% | 1009.8 hPa | 0 mm | - | 28 W/m² | - |
| 1778235486 | 3.89° C | 83% | 1010 hPa | 0 mm | - | 24 W/m² | - |
| 1778235183 | 3.89° C | 83% | 1010 hPa | 0 mm | - | 22 W/m² | - |
| 1778234881 | 3.89° C | 85% | 1009.8 hPa | 0 mm | - | 19 W/m² | - |
| 1778234580 | 3.89° C | 85% | 1009.9 hPa | 0 mm | - | 15 W/m² | - |
| 1778234275 | 3.33° C | 85% | 1009.8 hPa | 0 mm | - | 12 W/m² | - |
| 1778233972 | 3.33° C | 85% | 1009.6 hPa | 0 mm | - | 13 W/m² | - |
| 1778233669 | 3.33° C | 86% | 1009.6 hPa | 0 mm | - | 10 W/m² | - |
| 1778233367 | 3.33° C | 86% | 1009.7 hPa | 0 mm | - | 6 W/m² | - |
| 1778233063 | 3.33° C | 86% | 1009.6 hPa | 0 mm | - | 5 W/m² | - |
| 1778232761 | 2.78° C | 86% | 1009.6 hPa | 0 mm | - | 3 W/m² | - |
| 1778232457 | 2.78° C | 86% | 1009.4 hPa | 0 mm | - | 2 W/m² | - |
* Rain latest hour (hover to see other rain measurements)
** Current wind speed in m/s (hover to see current wind gust speed)